![]() |
EMODnet Physics ERDDAP
Easier access to scientific data |
log in|
Brought to you by EMODnet Physics |
| Dataset Title: | NDBC - Collection of dew point temperature (DEWT) TimeSeries - IN SITU MultiPointTimeSeriesObservation
|
| Institution: | NDBC (Dataset ID: TS_DEWT_NDBC) |
| Information: | Summary
| License
| FGDC
| ISO 19115
| Metadata
| Background
| Subset
| Data Access Form
| Make a graph
|
| Name | Last modified | Size | Description | |
|---|---|---|---|---|
| Parent Directory | - | - | ||
| 46075_TS_DEWT_012005.nc | 06-Dec-2024 05:15 | 1626744 | ||
| 46075_TS_DEWT_012006.nc | 06-Dec-2024 05:17 | 1626761 | ||
| 46075_TS_DEWT_012007.nc | 06-Dec-2024 05:19 | 1626068 | ||
| 46075_TS_DEWT_012009.nc | 06-Dec-2024 05:28 | 1673597 | ||
| 46075_TS_DEWT_012011.nc | 06-Dec-2024 05:33 | 1626507 | ||
| 46075_TS_DEWT_012012.nc | 06-Dec-2024 05:35 | 1626426 | ||
| 46075_TS_DEWT_012013.nc | 06-Dec-2024 05:37 | 1827140 | ||
| 46075_TS_DEWT_012014.nc | 06-Dec-2024 05:39 | 1830518 | ||
| 46075_TS_DEWT_012015.nc | 06-Dec-2024 05:42 | 1657520 | ||
| 46075_TS_DEWT_012016.nc | 06-Dec-2024 05:44 | 1685998 | ||
| 46075_TS_DEWT_012017.nc | 06-Dec-2024 05:45 | 1681693 | ||
| 46075_TS_DEWT_012018.nc | 06-Dec-2024 05:47 | 1834777 | ||
| 46075_TS_DEWT_012019.nc | 06-Dec-2024 05:50 | 5761033 | ||
| 46075_TS_DEWT_012020.nc | 06-Dec-2024 05:51 | 1475276 | ||
| 46075_TS_DEWT_012023.nc | 06-Dec-2024 05:56 | 1476745 | ||
| 46075_TS_DEWT_022005.nc | 06-Dec-2024 05:15 | 1475990 | ||
| 46075_TS_DEWT_022006.nc | 06-Dec-2024 05:17 | 1476445 | ||
| 46075_TS_DEWT_022007.nc | 06-Dec-2024 05:20 | 1663382 | ||
| 46075_TS_DEWT_022008.nc | 06-Dec-2024 05:26 | 1611424 | ||
| 46075_TS_DEWT_022009.nc | 06-Dec-2024 05:28 | 1476915 | ||
| 46075_TS_DEWT_022011.nc | 06-Dec-2024 05:33 | 1671865 | ||
| 46075_TS_DEWT_022012.nc | 06-Dec-2024 05:35 | 1667839 | ||
| 46075_TS_DEWT_022013.nc | 06-Dec-2024 05:37 | 1678830 | ||
| 46075_TS_DEWT_022014.nc | 06-Dec-2024 05:40 | 1679287 | ||
| 46075_TS_DEWT_022015.nc | 06-Dec-2024 05:42 | 1679667 | ||
| 46075_TS_DEWT_022016.nc | 06-Dec-2024 05:44 | 1674641 | ||
| 46075_TS_DEWT_022017.nc | 06-Dec-2024 05:45 | 2813142 | ||
| 46075_TS_DEWT_022018.nc | 06-Dec-2024 05:48 | 1457792 | ||
| 46075_TS_DEWT_022020.nc | 06-Dec-2024 05:51 | 1457041 | ||
| 46075_TS_DEWT_022023.nc | 06-Dec-2024 05:57 | 1626512 | ||
| 46075_TS_DEWT_032005.nc | 06-Dec-2024 05:15 | 1626125 | ||
| 46075_TS_DEWT_032006.nc | 06-Dec-2024 05:17 | 1626554 | ||
| 46075_TS_DEWT_032007.nc | 06-Dec-2024 05:21 | 1605503 | ||
| 46075_TS_DEWT_032008.nc | 06-Dec-2024 05:26 | 1650365 | ||
| 46075_TS_DEWT_032009.nc | 06-Dec-2024 05:28 | 1475242 | ||
| 46075_TS_DEWT_032010.nc | 06-Dec-2024 05:31 | 1669253 | ||
| 46075_TS_DEWT_032011.nc | 06-Dec-2024 05:33 | 1675209 | ||
| 46075_TS_DEWT_032012.nc | 06-Dec-2024 05:35 | 1639122 | ||
| 46075_TS_DEWT_032013.nc | 06-Dec-2024 05:38 | 1829665 | ||
| 46075_TS_DEWT_032014.nc | 06-Dec-2024 05:40 | 1831020 | ||
| 46075_TS_DEWT_032015.nc | 06-Dec-2024 05:42 | 1831640 | ||
| 46075_TS_DEWT_032017.nc | 06-Dec-2024 05:46 | 1783520 | ||
| 46075_TS_DEWT_032018.nc | 06-Dec-2024 05:48 | 1474794 | ||
| 46075_TS_DEWT_032020.nc | 06-Dec-2024 05:51 | 1626870 | ||
| 46075_TS_DEWT_032023.nc | 06-Dec-2024 05:57 | 1624289 | ||
| 46075_TS_DEWT_042005.nc | 06-Dec-2024 05:15 | 1626271 | ||
| 46075_TS_DEWT_042006.nc | 06-Dec-2024 05:17 | 1626649 | ||
| 46075_TS_DEWT_042007.nc | 06-Dec-2024 05:22 | 906512 | ||
| 46075_TS_DEWT_042008.nc | 06-Dec-2024 05:26 | 1818158 | ||
| 46075_TS_DEWT_042009.nc | 06-Dec-2024 05:28 | 1626623 | ||
| 46075_TS_DEWT_042010.nc | 06-Dec-2024 05:31 | 1674240 | ||
| 46075_TS_DEWT_042011.nc | 06-Dec-2024 05:33 | 1682501 | ||
| 46075_TS_DEWT_042012.nc | 06-Dec-2024 05:36 | 1672837 | ||
| 46075_TS_DEWT_042013.nc | 06-Dec-2024 05:38 | 1833124 | ||
| 46075_TS_DEWT_042014.nc | 06-Dec-2024 05:40 | 1835333 | ||
| 46075_TS_DEWT_042015.nc | 06-Dec-2024 05:43 | 1834586 | ||
| 46075_TS_DEWT_042017.nc | 06-Dec-2024 05:46 | 3702518 | ||
| 46075_TS_DEWT_042018.nc | 06-Dec-2024 05:48 | 1467656 | ||
| 46075_TS_DEWT_042020.nc | 06-Dec-2024 05:52 | 1475918 | ||
| 46075_TS_DEWT_042023.nc | 06-Dec-2024 05:57 | 1476834 | ||
| 46075_TS_DEWT_052004.nc | 06-Dec-2024 05:13 | 1476779 | ||
| 46075_TS_DEWT_052005.nc | 06-Dec-2024 05:15 | 1475725 | ||
| 46075_TS_DEWT_052006.nc | 06-Dec-2024 05:17 | 1238763 | ||
| 46075_TS_DEWT_052007.nc | 06-Dec-2024 05:23 | 1660644 | ||
| 46075_TS_DEWT_052008.nc | 06-Dec-2024 05:26 | 1476636 | ||
| 46075_TS_DEWT_052009.nc | 06-Dec-2024 05:29 | 1668034 | ||
| 46075_TS_DEWT_052010.nc | 06-Dec-2024 05:31 | 1671612 | ||
| 46075_TS_DEWT_052011.nc | 06-Dec-2024 05:33 | 1658476 | ||
| 46075_TS_DEWT_052012.nc | 06-Dec-2024 05:36 | 1676534 | ||
| 46075_TS_DEWT_052013.nc | 06-Dec-2024 05:38 | 1677725 | ||
| 46075_TS_DEWT_052014.nc | 06-Dec-2024 05:40 | 1676643 | ||
| 46075_TS_DEWT_052015.nc | 06-Dec-2024 05:43 | 4922684 | ||
| 46075_TS_DEWT_052017.nc | 06-Dec-2024 05:46 | 1626743 | ||
| 46075_TS_DEWT_052018.nc | 06-Dec-2024 05:48 | 1475520 | ||
| 46075_TS_DEWT_052020.nc | 06-Dec-2024 05:52 | 1626640 | ||
| 46075_TS_DEWT_052023.nc | 06-Dec-2024 05:58 | 1626687 | ||
| 46075_TS_DEWT_062004.nc | 06-Dec-2024 05:14 | 1670299 | ||
| 46075_TS_DEWT_062005.nc | 06-Dec-2024 05:15 | 1537000 | ||
| 46075_TS_DEWT_062006.nc | 06-Dec-2024 05:17 | 1664547 | ||
| 46075_TS_DEWT_062007.nc | 06-Dec-2024 05:24 | 1725798 | ||
| 46075_TS_DEWT_062008.nc | 06-Dec-2024 05:26 | 1825846 | ||
| 46075_TS_DEWT_062009.nc | 06-Dec-2024 05:29 | 1682501 | ||
| 46075_TS_DEWT_062010.nc | 06-Dec-2024 05:31 | 1828202 | ||
| 46075_TS_DEWT_062011.nc | 06-Dec-2024 05:34 | 1833931 | ||
| 46075_TS_DEWT_062012.nc | 06-Dec-2024 05:36 | 1749783 | ||
| 46075_TS_DEWT_062013.nc | 06-Dec-2024 05:38 | 1833637 | ||
| 46075_TS_DEWT_062014.nc | 06-Dec-2024 05:40 | 5611693 | ||
| 46075_TS_DEWT_062015.nc | 06-Dec-2024 05:43 | 1476230 | ||
| 46075_TS_DEWT_062017.nc | 06-Dec-2024 05:46 | 1476935 | ||
| 46075_TS_DEWT_062018.nc | 06-Dec-2024 05:48 | 1476422 | ||
| 46075_TS_DEWT_062020.nc | 06-Dec-2024 05:52 | 1476264 | ||
| 46075_TS_DEWT_062021.nc | 06-Dec-2024 05:53 | 1637474 | ||
| 46075_TS_DEWT_062022.nc | 06-Dec-2024 05:54 | 1457887 | ||
| 46075_TS_DEWT_062023.nc | 06-Dec-2024 05:58 | 1624352 | ||
| 46075_TS_DEWT_062025.nc | 17-Jul-2025 05:05 | 1475957 | ||
| 46075_TS_DEWT_072004.nc | 06-Dec-2024 05:14 | 1668277 | ||
| 46075_TS_DEWT_072005.nc | 06-Dec-2024 05:16 | 1667183 | ||
| 46075_TS_DEWT_072006.nc | 06-Dec-2024 05:18 | 1662814 | ||
| 46075_TS_DEWT_072007.nc | 06-Dec-2024 05:24 | 1679700 | ||
| 46075_TS_DEWT_072008.nc | 06-Dec-2024 05:27 | 1681318 | ||
| 46075_TS_DEWT_072009.nc | 06-Dec-2024 05:29 | 1680021 | ||
| 46075_TS_DEWT_072010.nc | 06-Dec-2024 05:31 | 5965699 | ||
| 46075_TS_DEWT_072011.nc | 06-Dec-2024 05:34 | 5576807 | ||
| 46075_TS_DEWT_072012.nc | 06-Dec-2024 05:36 | 1626647 | ||
| 46075_TS_DEWT_072013.nc | 06-Dec-2024 05:38 | 1626848 | ||
| 46075_TS_DEWT_072014.nc | 06-Dec-2024 05:41 | 1626863 | ||
| 46075_TS_DEWT_072015.nc | 06-Dec-2024 05:43 | 1626755 | ||
| 46075_TS_DEWT_072017.nc | 06-Dec-2024 05:46 | 1624950 | ||
| 46075_TS_DEWT_072018.nc | 06-Dec-2024 05:49 | 1624766 | ||
| 46075_TS_DEWT_072020.nc | 06-Dec-2024 05:52 | 1835794 | ||
| 46075_TS_DEWT_072021.nc | 06-Dec-2024 05:53 | 1625970 | ||
| 46075_TS_DEWT_072022.nc | 06-Dec-2024 05:54 | 1616754 | ||
| 46075_TS_DEWT_072023.nc | 06-Dec-2024 05:59 | 1681826 | ||
| 46075_TS_DEWT_072025.nc | 01-Aug-2025 03:47 | 1836883 | ||
| 46075_TS_DEWT_082004.nc | 06-Dec-2024 05:14 | 1833235 | ||
| 46075_TS_DEWT_082005.nc | 06-Dec-2024 05:16 | 1673845 | ||
| 46075_TS_DEWT_082006.nc | 06-Dec-2024 05:18 | 1806387 | ||
| 46075_TS_DEWT_082007.nc | 06-Dec-2024 05:25 | 5819787 | ||
| 46075_TS_DEWT_082008.nc | 06-Dec-2024 05:27 | 5191698 | ||
| 46075_TS_DEWT_082009.nc | 06-Dec-2024 05:29 | 450808 | ||
| 46075_TS_DEWT_082010.nc | 06-Dec-2024 05:32 | 984392 | ||
| 46075_TS_DEWT_082011.nc | 06-Dec-2024 05:34 | 1263186 | ||
| 46075_TS_DEWT_082012.nc | 06-Dec-2024 05:36 | 1264635 | ||
| 46075_TS_DEWT_082013.nc | 06-Dec-2024 05:38 | 1111892 | ||
| 46075_TS_DEWT_082014.nc | 06-Dec-2024 05:41 | 1264214 | ||
| 46075_TS_DEWT_082015.nc | 06-Dec-2024 05:43 | 1263151 | ||
| 46075_TS_DEWT_082017.nc | 06-Dec-2024 05:47 | 1264462 | ||
| 46075_TS_DEWT_082018.nc | 06-Dec-2024 05:49 | 4552411 | ||
| 46075_TS_DEWT_082019.nc | 06-Dec-2024 05:50 | 3404777 | ||
| 46075_TS_DEWT_082020.nc | 06-Dec-2024 05:52 | 427113 | ||
| 46075_TS_DEWT_082022.nc | 06-Dec-2024 05:54 | 437627 | ||
| 46075_TS_DEWT_082023.nc | 06-Dec-2024 05:59 | 438889 | ||
| 46075_TS_DEWT_082025.nc | 01-Sep-2025 03:55 | 1026668 | ||
| 46075_TS_DEWT_092004.nc | 06-Dec-2024 05:14 | 1026456 | ||
| 46075_TS_DEWT_092005.nc | 06-Dec-2024 05:16 | 1106557 | ||
| 46075_TS_DEWT_092006.nc | 06-Dec-2024 05:18 | 1027408 | ||
| 46075_TS_DEWT_092007.nc | 06-Dec-2024 05:25 | 1026901 | ||
| 46075_TS_DEWT_092008.nc | 06-Dec-2024 05:27 | 1026523 | ||
| 46075_TS_DEWT_092009.nc | 06-Dec-2024 05:29 | 3264097 | ||
| 46075_TS_DEWT_092010.nc | 06-Dec-2024 05:32 | 4863288 | ||
| 46075_TS_DEWT_092011.nc | 06-Dec-2024 05:34 | 439703 | ||
| 46075_TS_DEWT_092012.nc | 06-Dec-2024 05:36 | 435423 | ||
| 46075_TS_DEWT_092013.nc | 06-Dec-2024 05:39 | 1263796 | ||
| 46075_TS_DEWT_092014.nc | 06-Dec-2024 05:41 | 1264929 | ||
| 46075_TS_DEWT_092015.nc | 06-Dec-2024 05:44 | 1114861 | ||
| 46075_TS_DEWT_092016.nc | 06-Dec-2024 05:45 | 990948 | ||
| 46075_TS_DEWT_092017.nc | 06-Dec-2024 05:47 | 1263430 | ||
| 46075_TS_DEWT_092018.nc | 06-Dec-2024 05:49 | 1263800 | ||
| 46075_TS_DEWT_092019.nc | 06-Dec-2024 05:50 | 4472814 | ||
| 46075_TS_DEWT_092020.nc | 06-Dec-2024 05:52 | 2659585 | ||
| 46075_TS_DEWT_092022.nc | 06-Dec-2024 05:55 | 448784 | ||
| 46075_TS_DEWT_092023.nc | 06-Dec-2024 05:59 | 440457 | ||
| 46075_TS_DEWT_092025.nc | 17-Sep-2025 03:46 | 451391 | ||
| 46075_TS_DEWT_102004.nc | 06-Dec-2024 05:14 | 1111847 | ||
| 46075_TS_DEWT_102005.nc | 06-Dec-2024 05:16 | 1027644 | ||
| 46075_TS_DEWT_102006.nc | 06-Dec-2024 05:18 | 1113890 | ||
| 46075_TS_DEWT_102007.nc | 06-Dec-2024 05:25 | 1113075 | ||
| 46075_TS_DEWT_102008.nc | 06-Dec-2024 05:27 | 1111076 | ||
| 46075_TS_DEWT_102009.nc | 06-Dec-2024 05:30 | 1112151 | ||
| 46075_TS_DEWT_102010.nc | 06-Dec-2024 05:32 | 4712017 | ||
| 46075_TS_DEWT_102011.nc | 06-Dec-2024 05:34 | 452429 | ||
| 46075_TS_DEWT_102012.nc | 06-Dec-2024 05:37 | 452571 | ||
| 46075_TS_DEWT_102013.nc | 06-Dec-2024 05:39 | 1266208 | ||
| 46075_TS_DEWT_102014.nc | 06-Dec-2024 05:41 | 1262148 | ||
| 46075_TS_DEWT_102015.nc | 06-Dec-2024 05:44 | 1264769 | ||
| 46075_TS_DEWT_102016.nc | 06-Dec-2024 05:45 | 1264425 | ||
| 46075_TS_DEWT_102017.nc | 06-Dec-2024 05:47 | 1264672 | ||
| 46075_TS_DEWT_102018.nc | 06-Dec-2024 05:49 | 1113992 | ||
| 46075_TS_DEWT_102019.nc | 06-Dec-2024 05:50 | 5440323 | ||
| 46075_TS_DEWT_102020.nc | 06-Dec-2024 05:53 | 451544 | ||
| 46075_TS_DEWT_102022.nc | 06-Dec-2024 05:55 | 437676 | ||
| 46075_TS_DEWT_102023.nc | 06-Dec-2024 06:00 | 1104655 | ||
| 46075_TS_DEWT_112004.nc | 06-Dec-2024 05:14 | 1107983 | ||
| 46075_TS_DEWT_112005.nc | 06-Dec-2024 05:16 | 1109157 | ||
| 46075_TS_DEWT_112006.nc | 06-Dec-2024 05:18 | 1110694 | ||
| 46075_TS_DEWT_112007.nc | 06-Dec-2024 05:25 | 1108179 | ||
| 46075_TS_DEWT_112008.nc | 06-Dec-2024 05:27 | 1107128 | ||
| 46075_TS_DEWT_112009.nc | 06-Dec-2024 05:30 | 2908323 | ||
| 46075_TS_DEWT_112010.nc | 06-Dec-2024 05:32 | 432296 | ||
| 46075_TS_DEWT_112011.nc | 06-Dec-2024 05:35 | 654512 | ||
| 46075_TS_DEWT_112012.nc | 06-Dec-2024 05:37 | 1261201 | ||
| 46075_TS_DEWT_112013.nc | 06-Dec-2024 05:39 | 1260118 | ||
| 46075_TS_DEWT_112014.nc | 06-Dec-2024 05:42 | 1118964 | ||
| 46075_TS_DEWT_112015.nc | 06-Dec-2024 05:44 | 1112111 | ||
| 46075_TS_DEWT_112016.nc | 06-Dec-2024 05:45 | 1259187 | ||
| 46075_TS_DEWT_112017.nc | 06-Dec-2024 05:47 | 1112183 | ||
| 46075_TS_DEWT_112018.nc | 06-Dec-2024 05:49 | 1257119 | ||
| 46075_TS_DEWT_112019.nc | 06-Dec-2024 05:50 | 656658 | ||
| 46075_TS_DEWT_112020.nc | 06-Dec-2024 05:53 | 1259459 | ||
| 46075_TS_DEWT_112022.nc | 06-Dec-2024 05:56 | 1260995 | ||
| 46075_TS_DEWT_112023.nc | 06-Dec-2024 06:00 | 1111362 | ||
| 46075_TS_DEWT_122004.nc | 06-Dec-2024 05:14 | 1259991 | ||
| 46075_TS_DEWT_122005.nc | 06-Dec-2024 05:16 | 1257953 | ||
| 46075_TS_DEWT_122006.nc | 06-Dec-2024 05:19 | 1108775 | ||
| 46075_TS_DEWT_122007.nc | 06-Dec-2024 05:25 | 3580950 | ||
| 46075_TS_DEWT_122008.nc | 06-Dec-2024 05:28 | 640632 | ||
| 46075_TS_DEWT_122009.nc | 06-Dec-2024 05:30 | 1108618 | ||
| 46075_TS_DEWT_122010.nc | 06-Dec-2024 05:32 | 1015995 | ||
| 46075_TS_DEWT_122011.nc | 06-Dec-2024 05:35 | 1109575 | ||
| 46075_TS_DEWT_122012.nc | 06-Dec-2024 05:37 | 1108169 | ||
| 46075_TS_DEWT_122013.nc | 06-Dec-2024 05:39 | 1028929 | ||
| 46075_TS_DEWT_122014.nc | 06-Dec-2024 05:42 | 1031733 | ||
| 46075_TS_DEWT_122015.nc | 06-Dec-2024 05:44 | 4571163 | ||
| 46075_TS_DEWT_122016.nc | 06-Dec-2024 05:45 | 419588 | ||
| 46075_TS_DEWT_122017.nc | 06-Dec-2024 05:47 | 1262262 | ||
| 46075_TS_DEWT_122018.nc | 06-Dec-2024 05:49 | 1262050 | ||
| 46075_TS_DEWT_122019.nc | 06-Dec-2024 05:51 | 1262709 | ||
| 46075_TS_DEWT_122020.nc | 06-Dec-2024 05:53 | 1112936 | ||
| 46075_TS_DEWT_122022.nc | 06-Dec-2024 05:56 | 1263810 | ||
| 46075_TS_DEWT_122023.nc | 06-Dec-2024 06:01 | 1110653 | ||